Location: Unspecified
(0.0000°N, 0.0000°E)
Time: 20:45:38
(UTC+00:00)

SR - All Passes

Search period start: 14 July 2020 00:00
Search period end: 24 July 2020 00:00
Orbit: 583 x 872 km, 66.7° (Epoch: 14 July)

Date Brightness Start Highest point End Pass type
(mag) Time Alt. Az. Time Alt. Az. Time Alt. Az.
14 Jul - 02:20:50 10° S 02:26:14 50° ESE 02:31:13 10° NE visible
14 Jul - 14:46:32 10° NNW 14:51:03 66° WSW 14:56:00 10° SSE daylight
15 Jul - 01:32:29 10° SSE 01:36:29 20° ESE 01:40:18 10° ENE night (unlit)
15 Jul - 03:13:47 10° SW 03:18:21 27° WNW 03:22:37 10° NNW visible
15 Jul - 13:57:11 10° N 14:01:28 42° ENE 14:06:08 10° SE daylight
16 Jul - 02:23:17 10° SSW 02:28:48 70° WNW 02:33:52 10° NNE night (unlit)
16 Jul - 13:09:17 10° NE 13:11:58 15° ENE 13:14:44 10° ESE daylight
16 Jul - 14:49:47 10° NW 14:53:40 26° WSW 14:57:49 10° SSW daylight
17 Jul - 01:33:51 10° S 01:39:10 46° ESE 01:44:04 10° NE night (unlit)
17 Jul - 03:19:28 10° W 03:20:49 11° WNW 03:22:10 10° WNW night (unlit)
17 Jul - 13:59:25 10° NNW 14:03:59 74° WSW 14:08:58 10° SSE daylight
18 Jul - 00:45:41 10° SSE 00:49:25 18° ESE 00:52:59 10° ENE night (unlit)
18 Jul - 02:26:37 10° SW 02:31:17 29° WNW 02:35:39 10° NNW night (unlit)
18 Jul - 13:10:09 10° N 13:14:24 38° ENE 13:19:00 10° SE daylight
18 Jul - 14:55:23 10° WSW 14:56:21 11° WSW 14:57:20 10° SW daylight
19 Jul - 01:36:13 10° SSW 01:41:44 76° WNW 01:46:48 10° NNE night (unlit)
19 Jul - 12:22:30 10° NE 12:24:53 14° ENE 12:27:21 10° ESE daylight
19 Jul - 14:02:33 10° NW 14:06:34 29° WSW 14:10:54 10° S daylight
20 Jul - 00:46:53 10° S 00:52:05 42° ESE 00:56:54 10° NE night (unlit)
20 Jul - 02:31:47 10° W 02:33:46 12° WNW 02:35:41 10° NW night (unlit)
20 Jul - 13:12:17 10° NNW 13:16:54 81° WSW 13:21:56 10° SSE daylight
20 Jul - 23:58:54 10° SSE 00:02:20 17° ESE 00:05:37 10° ENE night (unlit)
21 Jul - 01:39:27 10° SW 01:44:14 31° WNW 01:48:41 10° N night (unlit)
21 Jul - 12:23:08 10° N 12:27:20 35° ENE 12:31:51 10° SE daylight
21 Jul - 14:07:29 10° W 14:09:15 12° WSW 14:11:04 10° SW daylight
22 Jul - 00:49:10 10° SSW 00:54:41 83° WNW 00:59:43 10° NNE night (unlit)
22 Jul - 11:35:46 10° NE 11:37:49 13° ENE 11:39:55 10° E daylight
22 Jul - 13:15:19 10° NW 13:19:29 32° WSW 13:23:58 10° S daylight
22 Jul - 23:59:56 10° S 00:05:01 38° ESE 00:09:43 10° NE night (unlit)
23 Jul - 01:44:17 10° W 01:46:41 13° WNW 01:49:03 10° NW night (unlit)
23 Jul - 12:25:11 10° NNW 12:29:49 89° WSW 12:34:54 10° SSE daylight
23 Jul - 23:12:10 10° SSE 23:15:14 15° ESE 23:18:13 10° ENE night (unlit)
